Time,TemperatureF,DewpointF,PressureIn,WindDirection,WindDirectionDegrees,WindSpeedMPH,WindSpeedGustMPH,Humidity,HourlyPrecipIn,Conditions,Clouds,dailyrainin,SoftwareType,DateUTC
2013-05-04 00:20:00,59.0,-99.9,-100.00,West,275,6.0,11.0,-999,-99.99,,,-99.99,,2013-05-04 07:20:00,
2013-05-04 00:32:00,60.0,-99.9,-100.00,West,272,5.0,10.0,-999,-99.99,,,-99.99,,2013-05-04 07:32:00,
2013-05-04 00:42:00,60.0,-99.9,-100.00,West,272,5.0,10.0,-999,-99.99,,,-99.99,,2013-05-04 07:42:00,
2013-05-04 00:52:00,60.0,-99.9,-100.00,West,272,5.0,10.0,-999,-99.99,,,-99.99,,2013-05-04 07:52:00,
2013-05-04 01:02:00,59.0,-99.9,-100.00,West,275,6.0,11.0,-999,-99.99,,,-99.99,,2013-05-04 08:02:00,
2013-05-04 01:12:00,59.0,-99.9,-100.00,West,275,6.0,11.0,-999,-99.99,,,-99.99,,2013-05-04 08:12:00,
2013-05-04 01:32:00,61.0,-99.9,-100.00,West,266,4.0,9.0,-999,-99.99,,,-99.99,,2013-05-04 08:32:00,
2013-05-04 01:42:00,61.0,-99.9,-100.00,West,266,4.0,9.0,-999,-99.99,,,-99.99,,2013-05-04 08:42:00,
2013-05-04 01:52:00,61.0,-99.9,-100.00,West,266,4.0,9.0,-999,-99.99,,,-99.99,,2013-05-04 08:52:00,
2013-05-04 02:33:00,55.0,-99.9,-100.00,SW,221,8.0,8.0,-999,-99.99,,,-99.99,,2013-05-04 09:33:00,
2013-05-04 02:42:00,55.0,-99.9,-100.00,SW,221,8.0,8.0,-999,-99.99,,,-99.99,,2013-05-04 09:42:00,
2013-05-04 02:53:00,55.0,-99.9,-100.00,SW,221,8.0,8.0,-999,-99.99,,,-99.99,,2013-05-04 09:53:00,
2013-05-04 03:03:00,56.0,-99.9,-100.00,WSW,244,3.0,8.0,-999,-99.99,,,-99.99,,2013-05-04 10:03:00,
2013-05-04 03:12:00,56.0,-99.9,-100.00,WSW,244,3.0,8.0,-999,-99.99,,,-99.99,,2013-05-04 10:12:00,
2013-05-04 03:33:00,52.0,-99.9,-100.00,West,275,6.0,11.0,-999,-99.99,,,-99.99,,2013-05-04 10:33:00,
2013-05-04 03:42:00,52.0,-99.9,-100.00,West,275,6.0,11.0,-999,-99.99,,,-99.99,,2013-05-04 10:42:00,
2013-05-04 03:53:00,52.0,-99.9,-100.00,West,275,6.0,11.0,-999,-99.99,,,-99.99,,2013-05-04 10:53:00,
2013-05-04 03:55:00,51.0,-99.9,-100.00,WSW,257,6.0,7.0,-999,-99.99,,,-99.99,,2013-05-04 10:55:00,
2013-05-04 04:32:00,51.0,-99.9,-100.00,WSW,257,6.0,7.0,-999,-99.99,,,-99.99,,2013-05-04 11:32:00,
2013-05-04 04:47:00,51.0,-99.9,-100.00,WSW,257,6.0,7.0,-999,-99.99,,,-99.99,,2013-05-04 11:47:00,
2013-05-04 06:22:00,49.0,-99.9,-100.00,WSW,247,3.0,7.0,-999,-99.99,,,-99.99,,2013-05-04 13:22:00,
2013-05-04 06:32:00,50.0,-99.9,-100.00,West,266,3.0,6.0,-999,-99.99,,,-99.99,,2013-05-04 13:32:00,
2013-05-04 06:42:00,50.0,-99.9,-100.00,West,266,3.0,6.0,-999,-99.99,,,-99.99,,2013-05-04 13:42:00,
2013-05-04 06:53:00,50.0,-99.9,-100.00,West,266,3.0,6.0,-999,-99.99,,,-99.99,,2013-05-04 13:53:00,
2013-05-04 07:32:00,52.0,-99.9,-100.00,NNW,346,0.0,2.0,-999,-99.99,,,-99.99,,2013-05-04 14:32:00,
2013-05-04 07:42:00,52.0,-99.9,-100.00,NNW,346,0.0,2.0,-999,-99.99,,,-99.99,,2013-05-04 14:42:00,
2013-05-04 07:52:00,52.0,-99.9,-100.00,NNW,346,0.0,2.0,-999,-99.99,,,-99.99,,2013-05-04 14:52:00,
2013-05-04 08:20:00,53.0,-99.9,-100.00,NNE,26,4.0,5.0,-999,-99.99,,,-99.99,,2013-05-04 15:20:00,
2013-05-04 08:22:00,52.0,-99.9,-100.00,NE,50,2.0,4.0,-999,-99.99,,,-99.99,,2013-05-04 15:22:00,
2013-05-04 08:33:00,52.0,-99.9,-100.00,NE,47,3.0,4.0,-999,-99.99,,,-99.99,,2013-05-04 15:33:00,
2013-05-04 08:43:00,52.0,-99.9,-100.00,NE,47,3.0,4.0,-999,-99.99,,,-99.99,,2013-05-04 15:43:00,
2013-05-04 08:53:00,52.0,-99.9,-100.00,NE,47,3.0,4.0,-999,-99.99,,,-99.99,,2013-05-04 15:53:00,
2013-05-04 09:03:00,53.0,-99.9,-100.00,NNE,26,4.0,5.0,-999,-99.99,,,-99.99,,2013-05-04 16:03:00,
2013-05-04 09:10:00,57.0,-99.9,-100.00,ENE,75,1.0,3.0,-999,-99.99,,,-99.99,,2013-05-04 16:10:00,
2013-05-04 09:12:00,53.0,-99.9,-100.00,NNE,26,4.0,5.0,-999,-99.99,,,-99.99,,2013-05-04 16:12:00,
2013-05-04 09:33:00,55.0,-99.9,-100.00,ENE,73,2.0,4.0,-999,-99.99,,,-99.99,,2013-05-04 16:33:00,
2013-05-04 09:42:00,55.0,-99.9,-100.00,ENE,73,2.0,4.0,-999,-99.99,,,-99.99,,2013-05-04 16:42:00,
2013-05-04 09:52:00,57.0,-99.9,-100.00,ENE,75,1.0,3.0,-999,-99.99,,,-99.99,,2013-05-04 16:52:00,
2013-05-04 10:02:00,57.0,-99.9,-100.00,ENE,75,1.0,3.0,-999,-99.99,,,-99.99,,2013-05-04 17:02:00,
2013-05-04 10:33:00,59.0,-99.9,-100.00,NE,40,5.0,7.0,-999,-99.99,,,-99.99,,2013-05-04 17:33:00,
2013-05-04 10:42:00,59.0,-99.9,-100.00,NE,40,5.0,7.0,-999,-99.99,,,-99.99,,2013-05-04 17:42:00,
2013-05-04 10:52:00,59.0,-99.9,-100.00,NE,40,5.0,7.0,-999,-99.99,,,-99.99,,2013-05-04 17:52:00,
2013-05-04 11:00:00,70.0,-99.9,-100.00,NE,55,6.0,6.0,-999,-99.99,,,-99.99,,2013-05-04 18:00:00,
2013-05-04 11:01:00,65.0,-99.9,-100.00,East,81,5.0,5.0,-999,-99.99,,,-99.99,,2013-05-04 18:01:00,
2013-05-04 11:12:00,65.0,-99.9,-100.00,East,81,5.0,5.0,-999,-99.99,,,-99.99,,2013-05-04 18:12:00,
2013-05-04 11:32:00,70.0,-99.9,-100.00,NE,55,6.0,6.0,-999,-99.99,,,-99.99,,2013-05-04 18:32:00,
2013-05-04 11:43:00,70.0,-99.9,-100.00,NE,55,6.0,6.0,-999,-99.99,,,-99.99,,2013-05-04 18:43:00,
2013-05-04 11:52:00,70.0,-99.9,-100.00,NE,55,6.0,6.0,-999,-99.99,,,-99.99,,2013-05-04 18:52:00,
2013-05-04 12:00:00,76.0,-99.9,-100.00,ESE,117,0.0,14.0,-999,-99.99,,,-99.99,,2013-05-04 19:00:00,
2013-05-04 12:32:00,76.0,-99.9,-100.00,ESE,117,0.0,14.0,-999,-99.99,,,-99.99,,2013-05-04 19:32:00,
2013-05-04 12:42:00,76.0,-99.9,-100.00,ESE,117,0.0,14.0,-999,-99.99,,,-99.99,,2013-05-04 19:42:00,
2013-05-04 12:52:00,76.0,-99.9,-100.00,ESE,117,0.0,14.0,-999,-99.99,,,-99.99,,2013-05-04 19:52:00,
2013-05-04 13:32:00,79.0,-99.9,-100.00,SE,141,10.0,13.0,-999,-99.99,,,-99.99,,2013-05-04 20:32:00,
2013-05-04 13:42:00,79.0,-99.9,-100.00,SE,141,10.0,13.0,-999,-99.99,,,-99.99,,2013-05-04 20:42:00,
2013-05-04 13:52:00,79.0,-99.9,-100.00,SE,141,10.0,13.0,-999,-99.99,,,-99.99,,2013-05-04 20:52:00,
2013-05-04 14:02:00,79.0,-99.9,-100.00,North,11,1.0,6.0,-999,-99.99,,,-99.99,,2013-05-04 21:02:00,
2013-05-04 14:12:00,79.0,-99.9,-100.00,North,11,1.0,6.0,-999,-99.99,,,-99.99,,2013-05-04 21:12:00,
2013-05-04 14:22:00,79.0,-99.9,-100.00,North,11,1.0,6.0,-999,-99.99,,,-99.99,,2013-05-04 21:22:00,
2013-05-04 14:33:00,80.0,-99.9,-100.00,ENE,70,4.0,8.0,-999,-99.99,,,-99.99,,2013-05-04 21:33:00,
2013-05-04 14:43:00,80.0,-99.9,-100.00,ENE,70,4.0,8.0,-999,-99.99,,,-99.99,,2013-05-04 21:43:00,
2013-05-04 14:53:00,80.0,-99.9,-100.00,ENE,70,4.0,8.0,-999,-99.99,,,-99.99,,2013-05-04 21:53:00,
2013-05-04 15:00:00,78.0,-99.9,-100.00,NE,45,2.0,11.0,-999,-99.99,,,-99.99,,2013-05-04 22:00:00,
2013-05-04 15:03:00,80.0,-99.9,-100.00,SSE,148,10.0,12.0,-999,-99.99,,,-99.99,,2013-05-04 22:03:00,
2013-05-04 15:12:00,80.0,-99.9,-100.00,SSE,148,10.0,12.0,-999,-99.99,,,-99.99,,2013-05-04 22:12:00,
2013-05-04 15:22:00,80.0,-99.9,-100.00,SSE,148,10.0,12.0,-999,-99.99,,,-99.99,,2013-05-04 22:22:00,
2013-05-04 15:33:00,81.0,-99.9,-100.00,North,352,0.0,11.0,-999,-99.99,,,-99.99,,2013-05-04 22:33:00,
2013-05-04 15:43:00,81.0,-99.9,-100.00,North,352,0.0,11.0,-999,-99.99,,,-99.99,,2013-05-04 22:43:00,
2013-05-04 15:52:00,78.0,-99.9,-100.00,NE,45,2.0,11.0,-999,-99.99,,,-99.99,,2013-05-04 22:52:00,
2013-05-04 16:20:00,81.0,-99.9,-100.00,East,95,2.0,9.0,-999,-99.99,,,-99.99,,2013-05-04 23:20:00,
2013-05-04 16:32:00,80.0,-99.9,-100.00,East,98,2.0,12.0,-999,-99.99,,,-99.99,,2013-05-04 23:32:00,
2013-05-04 16:43:00,80.0,-99.9,-100.00,East,98,2.0,12.0,-999,-99.99,,,-99.99,,2013-05-04 23:43:00,
2013-05-04 16:52:00,80.0,-99.9,-100.00,East,98,2.0,12.0,-999,-99.99,,,-99.99,,2013-05-04 23:52:00,
2013-05-04 17:02:00,81.0,-99.9,-100.00,East,95,2.0,9.0,-999,-99.99,,,-99.99,,2013-05-05 00:02:00,
2013-05-04 17:12:00,81.0,-99.9,-100.00,East,95,2.0,9.0,-999,-99.99,,,-99.99,,2013-05-05 00:12:00,
2013-05-04 18:00:00,79.0,-99.9,-100.00,WSW,251,1.0,6.0,-999,-99.99,,,-99.99,,2013-05-05 01:00:00,
2013-05-04 18:22:00,80.0,-99.9,-100.00,SSW,196,0.0,12.0,-999,-99.99,,,-99.99,,2013-05-05 01:22:00,
2013-05-04 18:32:00,79.0,-99.9,-100.00,WSW,251,1.0,6.0,-999,-99.99,,,-99.99,,2013-05-05 01:32:00,
2013-05-04 18:42:00,79.0,-99.9,-100.00,WSW,251,1.0,6.0,-999,-99.99,,,-99.99,,2013-05-05 01:42:00,
2013-05-04 18:52:00,79.0,-99.9,-100.00,WSW,251,1.0,6.0,-999,-99.99,,,-99.99,,2013-05-05 01:52:00,
2013-05-04 19:22:00,79.0,-99.9,-100.00,NNE,25,6.0,11.0,-999,-99.99,,,-99.99,,2013-05-05 02:22:00,
2013-05-04 19:32:00,76.0,-99.9,-100.00,SE,133,4.0,11.0,-999,-99.99,,,-99.99,,2013-05-05 02:32:00,
2013-05-04 19:42:00,76.0,-99.9,-100.00,SE,133,4.0,11.0,-999,-99.99,,,-99.99,,2013-05-05 02:42:00,
2013-05-04 19:52:00,79.0,-99.9,-100.00,NE,47,0.0,4.0,-999,-99.99,,,-99.99,,2013-05-05 02:52:00,
2013-05-04 20:00:00,76.0,-99.9,-100.00,East,91,1.0,6.0,-999,-99.99,,,-99.99,,2013-05-05 03:00:00,
2013-05-04 20:02:00,79.0,-99.9,-100.00,NE,47,0.0,4.0,-999,-99.99,,,-99.99,,2013-05-05 03:02:00,
2013-05-04 20:33:00,76.0,-99.9,-100.00,East,91,1.0,6.0,-999,-99.99,,,-99.99,,2013-05-05 03:33:00,
2013-05-04 20:43:00,76.0,-99.9,-100.00,East,91,1.0,6.0,-999,-99.99,,,-99.99,,2013-05-05 03:43:00,
2013-05-04 20:53:00,76.0,-99.9,-100.00,East,91,1.0,6.0,-999,-99.99,,,-99.99,,2013-05-05 03:53:00,
2013-05-04 21:00:00,72.0,-99.9,-100.00,NE,53,3.0,4.0,-999,-99.99,,,-99.99,,2013-05-05 04:00:00,
2013-05-04 21:23:00,74.0,-99.9,-100.00,NE,53,2.0,3.0,-999,-99.99,,,-99.99,,2013-05-05 04:23:00,
2013-05-04 21:33:00,72.0,-99.9,-100.00,NE,53,3.0,4.0,-999,-99.99,,,-99.99,,2013-05-05 04:33:00,
2013-05-04 21:43:00,72.0,-99.9,-100.00,NE,53,3.0,4.0,-999,-99.99,,,-99.99,,2013-05-05 04:43:00,
2013-05-04 21:53:00,72.0,-99.9,-100.00,NE,53,3.0,4.0,-999,-99.99,,,-99.99,,2013-05-05 04:53:00,
2013-05-04 22:32:00,69.0,-99.9,-100.00,NNE,22,3.0,10.0,-999,-99.99,,,-99.99,,2013-05-05 05:32:00,
2013-05-04 22:42:00,69.0,-99.9,-100.00,NNE,22,3.0,10.0,-999,-99.99,,,-99.99,,2013-05-05 05:42:00,
2013-05-04 22:52:00,70.0,-99.9,-100.00,NNE,13,0.0,4.0,-999,-99.99,,,-99.99,,2013-05-05 05:52:00,
2013-05-04 23:00:00,66.0,-99.9,-100.00,SSW,193,0.0,2.0,-999,-99.99,,,-99.99,,2013-05-05 06:00:00,
2013-05-04 23:02:00,70.0,-99.9,-100.00,NNE,13,0.0,4.0,-999,-99.99,,,-99.99,,2013-05-05 06:02:00,
2013-05-04 23:22:00,71.0,-99.9,-100.00,WNW,283,1.0,3.0,-999,-99.99,,,-99.99,,2013-05-05 06:22:00,
2013-05-04 23:32:00,66.0,-99.9,-100.00,SSW,193,0.0,2.0,-999,-99.99,,,-99.99,,2013-05-05 06:32:00,
2013-05-04 23:42:00,66.0,-99.9,-100.00,SSW,193,0.0,2.0,-999,-99.99,,,-99.99,,2013-05-05 06:42:00,
2013-05-04 23:52:00,66.0,-99.9,-100.00,SSW,193,0.0,2.0,-999,-99.99,,,-99.99,,2013-05-05 06:52:00,